Chanute, KS

6:54 PM CDT on May 29, 2017 (GMT -0500)
Chanute Martin Johnson

Weather History for KCNU - October, 2012

Change the Weather History Date:

Friday, October 12, 2012

  Actual Average Record
Temperature  
Mean Temperature 60 °F 59 °F  
Max Temperature 66 °F 71 °F 91 °F (1975)
Min Temperature 54 °F 48 °F 25 °F (1909)
Degree Days  
Heating Degree Days 5 7  
Month to date heating degree days 128 65  
Since 1 July heating degree days 150 112  
Cooling Degree Days 0 1  
Month to date cooling degree days 3 20  
Year to date cooling degree days 1962 1517  
Growing Degree Days 10 (Base 50)    
Moisture  
Dew Point 57 °F    
Average Humidity 89    
Maximum Humidity 100    
Minimum Humidity 77    
Precipitation  
Precipitation 1.10 in 0.13 in 4.45 in (1969)
Month to date precipitation 1.32 1.65  
Year to date precipitation 29.49 35.81  
Sea Level Pressure  
Sea Level Pressure 30.14 in    
Wind  
Wind Speed 9 mph (ENE)    
Max Wind Speed 20 mph    
Max Gust Speed 26 mph    
Visibility 6 miles    
Events Rain , Thunderstorm    
T = Trace of Precipitation, MM = Missing Value Source: NWS Daily Summary

Daily Weather History Graph

Daily Weather History Graph

Search for Another Location

Airport or City:

Trip Planner

Search our weather history database for the weather conditions in past years. The results will help you decide how hot, cold, wet, or windy it might be!

Date:

Astronomy

Oct. 12, 2012 Rise Set
Actual Time 7:27 AM CDT 6:48 PM CDT
Civil Twilight 7:01 AM CDT 7:14 PM CDT
Nautical Twilight 6:31 AM CDT 7:44 PM CDT
Astronomical Twilight 6:00 AM CDT 8:15 PM CDT
Moon 4:15 AM CDT (10/12) 4:56 PM CDT (10/12)
Length of Visible Light 12h 12m
Length of Day
11h 20m
Waning Crescent, 10% of the Moon is Illuminated
Oct 12
Waning Crescent
Oct 15
New
Oct 21
First Quarter
Oct 29
Full
Nov 6
Last Quarter

Hourly Weather History & Observations

Time (CDT) Temp. Dew Point Humidity Pressure Visibility Wind Dir Wind Speed Gust Speed Precip Events Conditions
12:40 AM 66.2 °F 62.6 °F 88% 30.12 in 9.0 mi ESE 4.6 mph - N/A Thunderstorm Overcast
12:52 AM 66.0 °F 63.0 °F 90% 30.10 in 7.0 mi SE 5.8 mph - 0.01 in Rain , Thunderstorm Thunderstorms and Rain
12:57 AM 66.2 °F 62.6 °F 88% 30.13 in 1.2 mi Variable 6.9 mph - 0.13 in Rain , Thunderstorm Thunderstorms and Rain
1:01 AM 64.4 °F 62.6 °F 94% 30.12 in 0.8 mi Calm Calm - 0.18 in Rain , Thunderstorm Heavy Thunderstorms and Rain
1:06 AM 64.4 °F 62.6 °F 94% 30.11 in 1.2 mi ESE 4.6 mph - 0.19 in Rain , Thunderstorm Thunderstorms and Rain
1:08 AM 64.4 °F 62.6 °F 94% 30.11 in 2.0 mi SE 6.9 mph - 0.19 in Rain , Thunderstorm Light Thunderstorms and Rain
1:16 AM 66.2 °F 64.4 °F 94% 30.12 in 7.0 mi Variable 4.6 mph - 0.19 in Rain , Thunderstorm Light Thunderstorms and Rain
1:52 AM 66.0 °F 64.0 °F 93% 30.10 in 7.0 mi NNE 3.5 mph - 0.19 in Thunderstorm Thunderstorm
2:14 AM 64.4 °F 62.6 °F 94% 30.13 in 7.0 mi NE 4.6 mph - 0.00 in Rain , Thunderstorm Light Thunderstorms and Rain
2:52 AM 63.0 °F 61.0 °F 93% 30.10 in 3.0 mi NE 10.4 mph - 0.10 in Rain Heavy Rain
3:02 AM 60.8 °F 59.0 °F 94% 30.12 in 4.0 mi North - - 0.03 in Rain , Thunderstorm Rain
3:14 AM 60.8 °F 59.0 °F 94% 30.13 in 5.0 mi North - - 0.05 in Rain , Thunderstorm Light Thunderstorms and Rain
3:32 AM 60.8 °F 57.2 °F 88% 30.13 in 5.0 mi NNE 11.5 mph - N/A Rain , Thunderstorm Light Thunderstorms and Rain
3:35 AM 60.8 °F 57.2 °F 88% 30.10 in 1.8 mi NE 17.3 mph 24.2 mph 0.31 in Rain , Thunderstorm Heavy Thunderstorms and Rain
3:43 AM 60.8 °F 59.0 °F 94% 30.13 in 1.2 mi NE 12.7 mph 24.2 mph 0.34 in Rain , Thunderstorm Light Thunderstorms and Rain
3:45 AM 60.8 °F 59.0 °F 94% 30.14 in 2.0 mi NNE 9.2 mph 23.0 mph 0.35 in Rain , Thunderstorm Light Thunderstorms and Rain
3:52 AM 61.0 °F 59.0 °F 93% 30.11 in 2.0 mi NE 10.4 mph 18.4 mph 0.44 in Rain , Thunderstorm Heavy Thunderstorms and Rain
4:35 AM 60.8 °F 59.0 °F 94% 30.13 in 4.0 mi NE 15.0 mph 20.7 mph 0.30 in Rain , Thunderstorm Light Thunderstorms and Rain
4:43 AM 60.8 °F 57.2 °F 88% 30.14 in 3.0 mi NE 15.0 mph 21.9 mph 0.36 in Rain , Thunderstorm Thunderstorms and Rain
4:52 AM 60.8 °F 57.2 °F 88% 30.14 in 5.0 mi NE 15.0 mph 21.9 mph N/A Rain , Thunderstorm Light Thunderstorms and Rain
5:02 AM 59.0 °F 57.2 °F 94% 30.14 in 2.5 mi ENE 15.0 mph 24.2 mph N/A Rain , Thunderstorm Heavy Thunderstorms and Rain
5:04 AM 59.0 °F 57.2 °F 94% 30.14 in 3.0 mi ENE 12.7 mph 23.0 mph 0.11 in Rain Heavy Rain
5:19 AM 59.0 °F 57.2 °F 94% 30.16 in 7.0 mi NE 11.5 mph - 0.12 in Rain Light Rain
5:52 AM 57.9 °F 55.9 °F 93% 30.14 in 8.0 mi North - - 0.12 in Rain Light Rain
6:06 AM 57.2 °F 55.4 °F 94% 30.18 in 9.0 mi North - - 0.00 in   Overcast
6:52 AM 57.0 °F 54.0 °F 89% 30.17 in 10.0 mi ENE 11.5 mph - 0.00 in   Overcast
7:52 AM 55.0 °F 52.0 °F 89% 30.17 in 10.0 mi ENE 12.7 mph 18.4 mph N/A   Mostly Cloudy
8:20 AM 55.4 °F 51.8 °F 88% 30.22 in 10.0 mi ENE 10.4 mph 18.4 mph N/A   Mostly Cloudy
8:52 AM 55.4 °F 51.8 °F 88% 30.22 in 10.0 mi ENE 11.5 mph - N/A   Mostly Cloudy
9:09 AM 55.4 °F 51.8 °F 88% 30.20 in 10.0 mi ENE 12.7 mph - N/A   Scattered Clouds
9:52 AM 55.0 °F 50.0 °F 83% 30.22 in 10.0 mi East 8.1 mph 19.6 mph N/A   Mostly Cloudy
10:14 AM 55.4 °F 50.0 °F 82% 30.24 in 10.0 mi ENE 11.5 mph - N/A   Overcast
10:52 AM 55.0 °F 48.9 °F 80% 30.23 in 10.0 mi ENE 8.1 mph - N/A   Overcast
11:52 AM 55.4 °F 48.2 °F 77% 30.23 in 10.0 mi ENE 10.4 mph - N/A   Overcast
12:52 PM 55.9 °F 51.1 °F 84% 30.21 in 10.0 mi East 10.4 mph - N/A   Overcast
1:33 PM 55.4 °F 51.8 °F 88% 30.20 in 10.0 mi ENE 9.2 mph - 0.00 in   Overcast
1:52 PM 55.9 °F 52.0 °F 87% 30.16 in 10.0 mi East 11.5 mph - 0.00 in   Overcast
2:52 PM 57.9 °F 54.0 °F 87% 30.15 in 9.0 mi East 10.4 mph - N/A   Overcast
3:52 PM 60.1 °F 55.9 °F 86% 30.14 in 7.0 mi East 9.2 mph - N/A   Overcast
4:52 PM 60.1 °F 57.9 °F 93% 30.14 in 5.0 mi East 6.9 mph - 0.00 in Rain Light Rain
4:59 PM 60.8 °F 57.2 °F 88% 30.15 in 5.0 mi East 6.9 mph - 0.00 in Rain , Thunderstorm Light Rain
5:14 PM 60.8 °F 57.2 °F 88% 30.14 in 4.0 mi East 5.8 mph - 0.01 in Rain Light Rain
5:28 PM 60.8 °F 57.2 °F 88% 30.13 in 2.5 mi East 6.9 mph - 0.04 in Rain Light Rain
5:39 PM 60.8 °F 57.2 °F 88% 30.13 in 3.0 mi East 8.1 mph - 0.04 in Rain Light Rain
6:05 PM 60.8 °F 59.0 °F 94% 30.15 in 3.0 mi North 4.6 mph - N/A Rain , Thunderstorm Light Rain
6:14 PM 60.8 °F 59.0 °F 94% 30.14 in 2.5 mi NNE 4.6 mph - 0.00 in Thunderstorm Overcast
6:25 PM 60.8 °F 59.0 °F 94% 30.14 in 2.5 mi East 3.5 mph - 0.00 in   Overcast
6:52 PM 60.1 °F 59.0 °F 96% 30.11 in 4.0 mi East 5.8 mph - 0.00 in   Overcast
7:52 PM 61.0 °F 59.0 °F 93% 30.09 in 3.0 mi ESE 10.4 mph - N/A   Overcast
8:52 PM 61.0 °F 60.1 °F 97% 30.12 in 4.0 mi ENE 5.8 mph - N/A   Overcast
9:17 PM 60.8 °F 59.0 °F 94% 30.12 in 4.0 mi ENE 9.2 mph - N/A   Overcast
9:39 PM 60.8 °F 59.0 °F 94% 30.12 in 6.0 mi ENE 8.1 mph - N/A   Overcast
9:52 PM 60.8 °F 59.0 °F 94% 30.12 in 6.0 mi ENE 8.1 mph - N/A Rain Light Rain
10:52 PM 61.0 °F 60.1 °F 97% 30.09 in 6.0 mi ESE 6.9 mph - 0.00 in   Overcast
11:52 PM 62.6 °F 60.8 °F 94% 30.08 in 7.0 mi ESE 10.4 mph - N/A   Overcast